Header for Extended Forecast Station List Page

Search by: ID | Name | Date | Parm | Value | Avg | % Avg
Sort by: ID | Name | Date | Parm | Value | Avg | % Avg

Enter search or view all records.

Click on id for station plot
#IDNameDateParmValueAvg% Avg
0BULO3BULLY CREEK-BULLY CREEK DAM05-21-2018INFLOW (KAF)000
1MYKO3MCKAY CREEK-NEAR PILOT ROCK05-21-2018DISCHARGE (KAF)1254
2WRMO3MALHEUR-WARM SPRINGS DAM05-21-2018INFLOW (KAF)2630
3UMAO3UMATILLA-NEAR UMATILLA05-21-2018DISCHARGE (KAF)136228
4RIDI1WILLOW CREEK-RIRIE DAM05-21-2018INFLOW (KAF)1615102
5BERO3MALHEUR-AGENCY VALLEY DAM05-21-2018INFLOW (KAF)141597
6GIBO3UMATILLA-NEAR GIBBON05-21-2018DISCHARGE (KAF)192478
7TCHW1WALLA WALLA-NEAR TOUCHET05-21-2018DISCHARGE (KAF)3425138
8VALO3MALHEUR-NEAR VALE05-21-2018DISCHARGE (KAF)113234
9PDTO3UMATILLA-AT PENDLETON05-21-2018DISCHARGE (KAF)243470
10PIHI1PORTNEUF-AT POCATELLO05-21-2018DISCHARGE (KAF)3735107
11TNAW1TEANAWAY-BELOW FORKS05-21-2018DISCHARGE (KAF)324275
12LWRI1LITTLE WOOD-LITTLE WOOD DAM05-21-2018INFLOW (KAF)284563
13SATI1ST MARIES-NEAR SANTA05-21-2018DISCHARGE (KAF)474996
14KADW1KACHESS-KACHESS DAM05-21-2018INFLOW (KAF)425675
15DLGM8CLARK FORK-AT DEER LODGE05-21-2018DISCHARGE (KAF)13059222
16KEDW1YAKIMA-KEECHELUS LAKE05-21-2018INFLOW (KAF)476375
17BUDW1BUMPING-BUMPING LAKE DAM05-21-2018INFLOW (KAF)598073
18EASW1YAKIMA-AT EASTON05-21-2018DISCHARGE (KAF)648576
19DEDI1DEADWOOD-NEAR LOWMAN05-21-2018INFLOW (KAF)599661
20OWYO3OWYHEE-OWYHEE DAM05-21-2018INFLOW (KAF)509851
21HOTI1BRUNEAU-NEAR HOT SPRINGS05-21-2018DISCHARGE (KAF)5310053
22MILI1SNAKE-AT MILNER05-21-2018DISCHARGE (KAF)424118360
23STRM8ST. REGIS-NEAR ST. REGIS05-21-2018DISCHARGE (KAF)140130107
24HODO3HOOD-NEAR TUCKER BRIDGE05-21-2018DISCHARGE (KAF)10713082
25MAGI1BIG WOOD-MAGIC DAM05-21-2018INFLOW (KAF)10613181
26MACI1BIG LOST-MACKAY RESERVOIR NEAR MACKAY05-21-2018INFLOW (KAF)10214272
27HWRI1BIG LOST-AT HOWELL RANCH NEAR CHILLY05-21-2018DISCHARGE (KAF)11114377
28RILW1TIETON-RIMROCK LAKE NEAR RIMROCK05-21-2018INFLOW (KAF)14015094
29ARDW1ENTIAT-NEAR ARDENVOIR05-21-2018DISCHARGE (KAF)14515792
30WSRI1WEISER-NEAR WEISER05-21-2018DISCHARGE (KAF)9516358
31HALI1BIG WOOD-AT HAILEY05-21-2018DISCHARGE (KAF)16418390
32IPDI1HENRYS FORK-ISLAND PARK DAM05-21-2018INFLOW (KAF)18218698
33MONO3NF JOHN DAY-AT MONUMENT05-21-2018DISCHARGE (KAF)8520142
34RCCM8ROCK CREEK-NEAR CLINTON05-21-2018DISCHARGE (KAF)374213176
35CHEI1FALL RIVER-NEAR CHESTER05-21-2018DISCHARGE (KAF)22022399
36UNDW1WHITE SALMON-NEAR UNDERWOOD05-21-2018DISCHARGE (KAF)20222490
37CLFW1NACHES-NEAR CLIFFDEL05-21-2018DISCHARGE (KAF)18623978
38CLUW1CLE ELUM-CLE ELUM LAKE05-21-2018INFLOW (KAF)19225376
39PARW1YAKIMA-NEAR PARKER05-21-2018DISCHARGE (KAF)20025778
40SERO3JOHN DAY-AT SERVICE CK05-21-2018DISCHARGE (KAF)9927935
41PARI1BOISE-NEAR PARMA05-21-2018DISCHARGE (KAF)493296167
42ARAI1SF BOISE-ANDERSON RANCH DAM05-21-2018INFLOW (KAF)17830658
43CSDI1NF PAYETTE-CASCADE DAM05-21-2018INFLOW (KAF)18230859
44PITW1KLICKITAT-NEAR PITT05-21-2018DISCHARGE (KAF)25531182
45TEAI1TETON-NEAR ST. ANTHONY05-21-2018DISCHARGE (KAF)340314108
46BIGI1BOISE-AT GLENWOOD BRIDGE05-21-2018DISCHARGE (KAF)516330156
47NACW1NACHES-NEAR NACHES05-21-2018DISCHARGE (KAF)25735373
48ANTI1HENRYS FORK-AT ST. ANTHONY05-21-2018DISCHARGE (KAF)41147387
49PRTI1PRIEST-NEAR PRIEST RIVER05-21-2018DISCHARGE (KAF)521479109
50REXI1HENRYS FORK-AT REXBURG05-21-2018DISCHARGE (KAF)50855791
51KIOW1YAKIMA-AT KIONA05-21-2018DISCHARGE (KAF)52059288
52BONM8BLACKFOOT-NEAR BONNER05-21-2018DISCHARGE (KAF)945600158
53PATW1METHOW-NEAR PATEROS05-21-2018DISCHARGE (KAF)753637118
54JLKW4SNAKE-JACKSON LAKE AT DAM05-21-2018INFLOW (KAF)62066693
55TRYO3GRANDE RONDE-TROY05-21-2018DISCHARGE (KAF)44666867
56UMTW1YAKIMA-AT UMTANUM05-21-2018DISCHARGE (KAF)77178998
57CHDW1CHELAN-LAKE CHELAN DAM05-21-2018INFLOW (KAF)75881094
58EMMI1PAYETTE-NEAR EMMETT05-21-2018DISCHARGE (KAF)67386678
59BITM8BITTERROOT-NEAR MISSOULA05-21-2018DISCHARGE (KAF)1152944122
60COEI1COEUR D ALENE-COEUR D ALENE LAKE05-21-2018INFLOW (KAF)1011102099
61PESW1WENATCHEE-AT PESHASTIN05-21-2018DISCHARGE (KAF)868105183
62LAUW1KETTLE-AT LAURIER05-21-2018DISCHARGE (KAF)1037106697
63ABOM8CLARK FORK-ABOVE MISSOULA05-21-2018DISCHARGE (KAF)17851081165
64TONW1OKANOGAN-NEAR TONASKET05-21-2018DISCHARGE (KAF)15641138137
65MODO3DESCHUTES-AT MOODY NR BIGGS05-21-2018DISCHARGE (KAF)1061114693
66BFTI1SNAKE-NEAR BLACKFOOT05-21-2018DISCHARGE (KAF)15561186131
67WGCM8MF FLATHEAD-NEAR WEST GLACIER05-21-2018DISCHARGE (KAF)11901191100
68FCFM8NF FLATHEAD-NEAR COLUMBIA FALLS05-21-2018DISCHARGE (KAF)1215123998
69SNAI1SNAKE-AT BLACKFOOT05-21-2018DISCHARGE (KAF)15761299121
70HHWM8SF FLATHEAD-HUNGRY HORSE DAM05-21-2018INFLOW (KAF)17251344128
71DWRI1NF CLEARWATER-DWORSHAK DAM05-21-2018INFLOW (KAF)15021463103
72LLKW1SPOKANE-AT LONGLAKE05-21-2018INFLOW (KAF)1403150193
73JKSW4SNAKE-NEAR JACKSON05-21-2018DISCHARGE (KAF)21311638130
74AFRI1SNAKE-AMERICAN FALLS RESERVOIR05-21-2018INFLOW (KAF)21071802117
75SHYI1SNAKE-NEAR SHELLEY05-21-2018DISCHARGE (KAF)21661829118
76SWAI1SNAKE-BELOW SWAN FALLS05-21-2018DISCHARGE (KAF)20282003101
77ALPW4SNAKE-NEAR ALPINE05-21-2018DISCHARGE (KAF)24742024122
78BELM8CLARK FORK-BELOW MISSOULA05-21-2018DISCHARGE (KAF)29482065143
79SIFI1SNAKE-AB EAGLE ROCK NR IDAHO FALLS05-21-2018DISCHARGE (KAF)24012152112
80SRGM8CLARK FORK-AT ST REGIS05-21-2018DISCHARGE (KAF)35912697133
81PLDI1SF SNAKE-PALISADES DAM05-21-2018INFLOW (KAF)31312757114
82ORFI1CLEARWATER-AT OROFINO05-21-2018DISCHARGE (KAF)31102780112
83HEII1SNAKE-NEAR HEISE05-21-2018DISCHARGE (KAF)32372921111
84CFMM8FLATHEAD-AT COLUMBIA FALLS05-21-2018DISCHARGE (KAF)36083197113
85WEII1SNAKE-AT WEISER05-21-2018DISCHARGE (KAF)35213533100
86BRNI1SNAKE-BROWNLEE DAM05-21-2018INFLOW (KAF)3709374699
87KERM8FLATHEAD-KERR DAM05-21-2018INFLOW (KAF)44153966111
88SPDI1CLEARWATER-AT SPALDING05-21-2018DISCHARGE (KAF)52104122126
89WHBI1SALMON-AT WHITEBIRD05-21-2018DISCHARGE (KAF)4367454496
90LEOI1KOOTENAI-AT LEONIA05-21-2018DISCHARGE (KAF)4461462496
91LYDM8KOOTENAI-LIBBY DAM05-21-2018INFLOW (KAF)52115208100
92NOXM8CLARK FORK-NOXON RAPIDS DAM05-21-2018INFLOW (KAF)85666847125
93CABI1CLARK FORK-CABINET GORGE DAM05-21-2018INFLOW (KAF)93937303129
94ALFW1PEND OREILLE-ALBENI FALLS DAM05-21-2018INFLOW (KAF)100858175123
95ANAW1SNAKE-NEAR ANATONE05-21-2018DISCHARGE (KAF)8615942391
96IHDW1SNAKE-ICE HARBOR DAM05-21-2018INFLOW (KAF)1385313642102
97LGDW1SNAKE-LOWER GRANITE DAM05-21-2018INFLOW (KAF)1383413646101
98LGSW1SNAKE-LITTLE GOOSE DAM05-21-2018INFLOW (KAF)1381913651101
99LMNW1SNAKE-LOWER MONUMENTAL DAM05-21-2018INFLOW (KAF)1385313685101
100CHJW1COLUMBIA-CHIEF JOSEPH DAM05-21-2018INFLOW (KAF)3437229067118
101WELW1COLUMBIA-WELLS DAM05-21-2018INFLOW (KAF)3666831161118
102RRHW1COLUMBIA-ROCKY REACH DAM05-21-2018INFLOW (KAF)3801731807120
103WANW1COLUMBIA-WANAPUM DAM05-21-2018INFLOW (KAF)3929038405102
104GCDW1COLUMBIA-GRAND COULEE DAM05-21-2018INFLOW (KAF)383773860499
105PRWW1COLUMBIA-PRIEST RAPIDS DAM05-21-2018INFLOW (KAF)3931439242100
106TDAO3COLUMBIA-THE DALLES DAM05-21-2018INFLOW (KAF)5507249474111
107BONO3COLUMBIA-BONNEVILLE DAM05-21-2018INFLOW (KAF)5550350613110
108MCDW1COLUMBIA-MCNARY DAM05-21-2018INFLOW (KAF)5391154090100
109JDAO3COLUMBIA-JOHN DAY DAM05-21-2018INFLOW (KAF)547795513399
110BFEI1KOOTENAI-AT BONNERS FERRY05-21-2018STAGE (FT)MMM
111DRMM8CLARK FORK-NR DRUMMOND05-21-2018DISCHARGE (KAF)380MM
112HOPI1PEND OREILLE-PEND OREILLE LAKE NR HOPE05-21-2018LAKE ELEVATION (FT)MMM
113SPOW1SPOKANE-AT SPOKANE05-21-2018DISCHARGE (KAF)1191MM
114SJMI1ST JOE-AT ST MARIES05-21-2018STAGE (FT)MMM
115CIBW1COLUMBIA-AT INTL BOUNDARY05-21-2018DISCHARGE (KAF)35772MM
116LUCI1BOISE-LUCKY PEAK DAM05-21-2018INFLOW (KAF)1111MM